Tracking 19242 objects as of 19-Sep-2018
HD Live streaming from Space Station
objects crossing your sky now

LANDSAT 2

Track LANDSAT 2 now!
10-day predictions
LANDSAT 2 is classified as:


NORAD ID: 7615
Int'l Code: 1975-004A
Perigee: 906.4 km
Apogee: 918.6 km
Inclination: 98.8 °
Period: 103.1 minutes
Semi major axis: 7283 km
RCS: 3.0869 m2 (large)
Launch date: January 22, 1975
Source: United States (US)
Launch site: AIR FORCE WESTERN TEST RANGE (AFWTR)
aabbcc
Your satellite tracking list
Your tracking list is empty




NASA's NSSDC Master Catalog

Two Line Element Set (TLE):
1  7615U 75004A   18261.93689833 -.00000153 +00000-0 -80438-4 0  9990
2  7615 098.7640 280.1287 0008406 190.3960 169.7031 13.96664047224303
Source of the keplerian elements: AFSPC